This demonstration page uses our WeatherBlox Daily Observations layout. Learn more.

Left ArrowRight Arrow

41.55636, -103.73856

Hourly Observations for June 27, 2019

Temp ( °F °C ) Dew Point ( °F °C ) Humidity (%) Winds ( mph kmh ) Pressure ( in mb ) Visibility ( mi km ) Precip ( " mm )
12:58 am 00:58 Mostly Clear 74 23.4 45 7.3 36 36 ENE 22 35 29.89 1012 10 16 N/A
1:58 am 01:58 Clear 67 19.2 47 8.5 50 50 ENE 12 19 29.90 1013 10 16 N/A
2:58 am 02:58 Mostly Clear 64 17.6 45 7.4 51 51 E 10 17 29.89 1012 10 16 N/A
3:58 am 03:58 Clear 64 17.6 43 6.2 47 47 SE 7 11 29.89 1012 10 16 N/A
4:58 am 04:58 Clear 61 16.1 44 6.9 55 55 S 8 13 29.88 1012 10 16 N/A
5:58 am 05:58 Clear 58 14.5 46 7.5 63 63 SSW 9 15 29.88 1012 10 16 N/A
6:58 am 06:58 Clear 60 15.7 47 8.3 62 62 SW 14 22 29.88 1012 10 16 N/A
7:58 am 07:58 Clear 60 15.3 47 8.6 65 65 W 5 7 29.88 1012 10 16 N/A
8:58 am 08:58 Clear 55 13 47 8.5 74 74 N N/A 29.90 1013 10 16 N/A
9:58 am 09:58 Clear 59 15.1 47 8.5 65 65 S 3 6 29.90 1013 10 16 N/A
10:58 am 10:58 Clear 52 11.2 46 7.8 80 80 W 9 15 29.92 1013 10 16 N/A
11:58 am 11:58 Sunny 57 13.9 46 7.6 66 66 W 13 20 29.93 1014 10 16 N/A
12:58 pm 12:58 Sunny 58 14.5 47 8.5 67 67 N 9 15 29.96 1015 10 16 N/A
1:58 pm 13:58 Sunny 62 16.8 53 11.5 71 71 NNE 6 9 29.98 1015 10 16 N/A
2:58 pm 14:58 Sunny 67 19.6 54 12.2 62 62 N N/A 29.98 1015 10 16 N/A
3:58 pm 15:58 Sunny 72 22.4 46 7.7 39 39 WSW 8 13 29.98 1015 10 16 N/A
4:58 pm 16:58 Sunny 76 24.6 44 6.6 32 32 WNW 8 13 29.98 1015 10 16 N/A
5:58 pm 17:58 Sunny 82 27.5 46 8 29 29 WSW 6 9 29.96 1015 10 16 N/A
6:58 pm 18:58 Sunny 85 29.2 38 3.2 19 19 SW 7 11 29.94 1014 10 16 N/A
7:58 pm 19:58 Sunny 85 29.3 40 4.6 21 21 SSW 13 20 29.94 1014 10 16 N/A
8:58 pm 20:58 Sunny 85 29.6 38 3.5 19 19 S 7 11 29.94 1014 10 16 N/A
9:58 pm 21:58 Sunny 85 29.4 45 7.2 25 25 SSW 10 17 29.94 1014 10 16 N/A
10:58 pm 22:58 Sunny 82 27.9 50 9.9 32 32 SSW 9 15 29.94 1014 10 16 N/A
11:58 pm 23:58 Sunny 83 28.6 49 9.3 30 30 S 10 17 29.92 1013 10 16 N/A

Powered by AerisWeather